sat.trackr.live / text

‹ back to catalog

STARLINK-5270

NORAD 55299 · 2023-010AG

PAYLOAD ACTIVE UNKNOWN

§ Identity

Operator
Country
US
Launch date
2023-01-19
Launch site
AFWTR
Launch vehicle
Mass (kg)
RCS (m²)

Purposes: comms

External: N2YO · Heavens-Above · Gunter

§ Orbital elements

Epoch: 2026-05-25T03:16:23.242368Z

Period
96.11 min
Inclination
69.9989°
Eccentricity
0.0003654
Mean motion
14.98330440 rev/d
Perigee alt
569.5 km
Apogee alt
574.6 km
Semi-major
6,950.2 km
B*
4.8967e-5
RAAN
191.5646°
Arg perigee
268.0459°
Mean anomaly
92.0282°
Rev number
18,560

§ Raw data

STARLINK-52701 55299U 23010AG  26145.13638012  .00000491  00000+0  48967-4 0  99992 55299  69.9989 191.5646 0003654 268.0459  92.0282 14.98330440185605

JSON: /api/v1/satellites/55299 · /tle

For live sub-satellite position, see the globe view (requires WebGL).

§ Visibility from observer

Set your observer location to see the next 7 days of passes ≥ 10°. The values pass through the URL so the page stays shareable.

No JS? Fill the form by hand. The geolocation button needs JavaScript.